Orbital Elements at Epoch 2459200.5 (2020-Dec-17.0) TDB
Reference: JPL 30 (heliocentric ecliptic J2000)
Element | Value | Uncertainty (1-sigma) | Units |
e | .2443811265675016 | 3.2975e-08 | |
a | 2.631880394062736 | 1.3497e-08 | au |
q | 1.988698498370765 | 8.5362e-08 | au |
i | 14.95718276818837 | 3.9127e-06 | deg |
node | 153.3286501900198 | 1.9255e-05 | deg |
peri | 190.0184062128623 | 2.179e-05 | deg |
M | 149.3658781794909 | 1.2002e-05 | deg |
tp | 2458553.437031220974 (2019-Mar-10.93703122) | 5.0102e-05 | TDB |
period | 1559.544064545487 4.27 | 1.1997e-05 3.285e-08 | d yr |
n | .2308366965603618 | 1.7757e-09 | deg/d |
Q | 3.275062289754708 | 1.6796e-08 | au |
|
| | Orbit Determination Parameters
Additional Information
|